Zurück zum Katalog

STARLINK-31362

AktivKommunikationVLEO
NORAD 58935·PAYLOAD·🇺🇸 United States

Gestartet Feb 10, 2024 von Vandenberg Space Force Base

Loading…

Nächste Überflüge (nächste 24 Stunden)

TLE

AktuellSource: CelesTrak SupGP

Epoche: Sep 15, 2026, 02:26 UTC

1 58935C 24027E   26258.10187500  .00006258  00000+0  18492-3 0  2585
2 58935  53.1583 148.5905 0001282  87.4793 342.8690 15.34384784    10

Verfolge STARLINK-31362 in Echtzeit mit AllMySat

Download on the App Store